Theta_e
288 288 288 288 287 287 287 286 286 286 286 287 287 286 286 287 287 288 289 290 291 291 291 291 291 291 291 292 292 293 294 294 294 295 295 295 295 295 295 295 295 295 295 295 294 294 294 294 294 294 293 293 293 293 293 293 294 294 294 295 295 295 295 294 294 294 293 292 293 293 292 291 290 289 288 288 288 288 288 288 287 287 287 286 286
287 288 287 287 287 286 286 286 286 286 286 286 286 286 286 285 285 286 286 287 288 289 290 290 291 291 291 291 291 291 292 292 293 294 294 294 294 294 294 294 294 294 294 294 294 294 294 293 293 293 293 293 293 293 293 292 293 293 293 294 294 294 294 294 293 293 292 291 291 292 291 290 289 289 289 288 288 288 287 287 287 287 286 286 286
287 287 287 287 287 286 286 286 285 285 285 285 285 285 285 285 285 285 285 285 286 286 287 288 288 289 290 291 291 291 290 291 291 292 293 293 294 294 294 294 294 294 294 294 293 293 293 293 293 293 293 293 292 292 292 292 292 292 292 292 293 293 293 294 293 292 291 290 291 291 290 289 289 289 289 289 288 288 287 287 286 286 286 286 286
287 287 288 287 288 287 287 286 286 285 285 285 285 285 285 285 285 285 285 285 285 285 285 285 286 287 287 289 290 290 291 290 290 290 291 291 292 292 293 293 293 293 293 293 293 293 293 292 293 293 292 292 292 292 292 292 292 292 291 291 292 292 292 292 293 293 292 290 289 290 291 290 289 289 289 288 287 287 287 286 286 285 285 285 285
287 287 287 287 287 287 287 286 286 286 286 285 285 284 284 284 284 284 284 284 285 285 284 284 285 285 286 287 287 288 289 290 290 290 290 290 290 291 291 292 292 292 292 292 292 292 292 292 292 292 292 292 292 292 291 291 291 291 291 291 291 291 291 291 292 292 292 290 289 289 290 290 289 288 288 287 286 286 286 285 285 285 284 285 285
286 286 287 286 286 287 287 286 286 286 286 286 285 285 284 284 284 284 284 284 284 284 284 284 284 284 285 286 286 287 287 288 288 289 289 290 290 290 290 290 290 290 291 291 291 291 291 291 291 291 291 291 291 291 291 291 291 291 291 290 290 290 290 290 291 291 291 290 289 288 288 288 287 287 287 287 286 285 285 284 284 284 284 284 284
286 286 286 286 286 286 286 286 286 286 286 286 285 284 284 284 283 283 283 283 284 284 284 284 284 284 284 284 285 286 286 286 286 287 287 288 289 289 289 289 289 289 289 290 290 290 290 290 291 291 291 291 291 290 290 290 290 290 290 290 290 290 290 290 290 290 290 290 289 288 287 287 287 286 286 286 286 285 284 283 283 283 283 283 283
286 286 286 286 285 285 285 285 285 285 285 285 284 284 284 284 283 283 283 283 283 283 284 284 284 284 284 284 284 285 285 285 285 286 286 286 287 288 289 289 289 289 289 289 289 289 289 290 290 290 290 290 290 290 290 290 290 290 290 290 289 289 289 289 289 289 289 289 288 287 286 286 286 286 285 285 284 284 284 283 283 283 283 283 283
286 286 285 285 285 285 285 285 285 285 285 284 284 284 284 283 283 283 283 282 282 283 283 284 284 284 284 284 284 284 284 284 285 285 285 286 286 287 287 287 288 288 289 289 289 289 289 289 289 289 289 289 289 290 290 290 290 290 290 289 289 289 289 289 289 288 288 288 288 287 285 285 285 284 284 284 284 284 284 284 284 283 283 283 283
287 286 286 286 285 285 285 285 284 284 284 284 284 284 284 284 283 283 283 283 283 283 283 284 284 284 284 283 283 283 283 284 284 284 285 285 285 286 286 286 286 287 288 288 288 289 289 288 289 289 289 289 289 289 289 289 289 289 289 289 289 289 288 288 288 288 288 288 288 287 285 284 285 284 284 284 284 284 284 283 283 283 283 282 282
287 286 286 286 285 285 285 284 284 284 284 284 284 284 284 284 284 284 284 284 283 283 283 283 283 284 284 283 283 283 283 283 283 283 284 284 284 285 285 285 285 286 287 288 288 288 288 288 288 288 288 288 288 288 289 289 289 289 289 289 289 289 288 288 288 288 288 288 288 288 286 285 285 284 284 284 284 284 284 283 283 283 282 282 282
287 286 286 285 285 285 284 284 284 284 284 283 283 283 283 283 283 284 284 284 284 283 283 283 283 283 283 283 282 282 283 283 283 283 283 283 284 285 285 285 285 285 285 286 287 288 288 288 288 288 288 288 288 288 288 288 288 288 288 288 289 289 289 288 288 288 288 288 288 288 287 287 286 285 284 284 283 283 283 283 283 283 283 283 283
287 286 286 285 285 284 284 283 283 283 283 283 283 283 283 283 283 283 283 283 283 282 282 283 283 283 283 282 282 282 282 282 282 282 282 282 283 284 285 284 284 285 285 285 286 287 287 288 288 288 288 288 288 288 288 288 288 288 288 288 288 288 288 288 288 288 288 288 288 288 288 288 287 286 285 284 283 283 283 283 283 283 284 284 284
286 285 285 285 284 284 284 283 283 283 283 283 282 282 282 282 282 282 282 281 281 281 281 281 282 282 282 282 282 282 282 282 282 281 282 282 282 283 285 285 285 285 285 285 285 286 286 287 287 287 288 288 288 288 288 288 288 287 287 287 287 288 288 288 288 288 288 288 288 288 288 288 288 287 286 285 284 284 283 283 284 284 284 284 285
284 284 284 284 284 283 283 283 283 282 282 282 282 282 282 282 282 281 281 280 280 280 280 280 280 281 281 281 281 281 282 282 281 281 282 283 282 283 284 285 285 285 284 284 284 284 285 286 286 287 287 287 288 288 288 288 287 287 287 287 287 287 287 287 288 288 288 288 287 287 288 288 288 288 287 286 285 285 285 285 285 285 284 284 284
282 282 282 282 282 283 282 282 282 282 282 281 281 281 281 281 281 281 280 279 279 279 278 278 279 279 280 280 280 280 281 281 281 281 281 282 283 283 284 284 284 284 284 284 284 284 284 285 285 286 286 287 287 287 288 288 287 287 287 287 287 287 287 287 287 287 287 287 287 287 287 287 287 287 287 286 286 285 284 284 284 284 284 283 283
281 281 280 281 281 281 280 280 280 280 280 280 279 279 279 279 279 279 279 278 278 278 277 277 277 278 278 279 279 279 279 279 279 279 279 280 282 283 283 284 284 284 283 283 283 283 284 284 285 285 286 286 286 287 287 288 288 287 287 287 286 286 286 286 287 287 287 287 287 287 287 287 287 287 287 287 286 285 284 284 284 283 283 283 282
278 278 278 278 278 278 278 278 278 278 278 277 277 276 277 277 277 277 277 277 277 276 276 276 276 276 277 277 277 277 277 277 277 278 279 280 281 282 283 283 283 283 283 283 283 283 284 284 284 285 285 286 286 287 287 287 288 288 287 287 286 286 286 286 286 286 286 286 286 286 287 287 286 286 286 286 286 285 284 284 284 283 283 283 283
276 276 276 276 275 275 275 275 275 275 275 274 274 274 274 274 275 275 275 275 275 275 275 275 275 276 276 276 276 276 275 276 276 276 277 279 280 281 281 282 282 282 282 282 283 283 283 284 284 284 285 285 285 286 287 287 288 288 287 287 286 286 286 286 286 286 286 286 286 286 286 286 286 286 286 286 286 285 285 285 285 284 283 284 283
274 273 273 273 272 272 272 272 272 272 272 271 271 271 272 272 272 273 273 273 273 274 274 274 274 274 274 274 274 274 274 274 274 275 276 277 278 279 280 280 281 281 282 282 282 283 283 283 284 284 284 284 285 286 286 287 287 288 288 287 286 286 287 286 286 285 285 285 285 285 285 286 286 285 285 285 285 285 285 284 284 284 284 284 283
271 271 270 269 269 268 269 269 269 269 268 268 268 268 269 269 270 270 271 271 272 272 272 272 273 273 273 273 273 273 273 273 273 273 274 275 277 277 278 279 280 281 282 282 282 282 283 283 283 283 284 284 284 286 287 287 287 287 288 287 287 287 287 286 285 285 285 285 285 285 285 285 285 285 285 285 285 285 285 284 284 284 284 284 283
268 267 266 266 266 265 266 265 265 265 265 265 266 266 266 266 267 267 268 269 269 270 270 271 271 271 271 271 271 272 272 272 272 272 273 274 276 277 278 278 279 280 281 282 282 282 282 283 283 283 283 283 284 285 287 288 288 288 288 287 287 287 287 286 286 285 285 285 284 284 284 284 284 284 284 284 284 285 285 284 284 283 283 284 284
265 265 264 264 264 263 263 263 263 263 264 264 264 264 264 264 265 266 266 267 267 268 268 269 269 270 270 270 270 271 271 271 271 272 273 274 275 276 277 278 279 280 281 282 282 282 282 282 282 282 283 283 283 284 286 287 287 288 288 288 288 287 287 287 286 285 284 284 284 284 283 283 283 283 283 283 283 284 284 284 283 283 282 283 283
264 263 263 263 262 262 262 262 262 262 262 262 262 263 263 263 264 264 265 265 266 267 267 268 268 268 269 269 269 270 270 270 270 271 272 273 274 275 276 277 279 280 281 282 282 282 282 282 282 282 283 283 283 283 285 286 287 287 287 288 288 288 287 287 286 285 284 284 283 283 283 283 283 283 282 283 283 283 283 283 283 282 282 282 282
263 262 262 262 262 262 262 262 262 262 262 262 262 262 263 263 263 264 264 265 265 266 266 267 267 268 268 268 269 269 269 269 270 270 271 271 272 273 275 276 277 278 280 281 282 283 283 283 283 282 282 283 283 283 284 285 286 287 287 287 287 288 287 287 286 285 284 283 283 283 283 283 282 282 282 282 282 282 282 282 281 280 280 280 280
262 261 261 261 261 261 261 261 261 261 261 262 262 262 262 263 263 263 263 264 264 265 265 266 266 267 267 267 268 268 268 268 269 269 269 270 271 271 272 274 275 276 278 279 281 282 283 284 284 284 283 283 283 284 284 285 285 286 286 287 287 287 287 287 286 285 284 284 283 283 283 282 282 282 282 281 281 281 280 280 279 279 279 279 278
261 261 261 261 261 261 261 261 261 261 261 261 261 262 262 262 262 262 263 263 263 264 264 264 265 265 265 266 266 266 266 267 267 267 268 268 268 268 270 271 273 274 276 277 278 280 281 282 283 284 284 284 284 284 284 284 285 285 285 286 286 286 287 286 286 285 284 284 283 283 282 282 282 281 281 280 280 280 279 278 278 277 277 277 276
261 261 261 261 261 261 261 260 261 261 261 261 261 261 261 261 262 262 262 262 262 263 263 263 264 264 264 264 265 265 265 266 266 266 267 267 267 268 269 270 271 273 274 275 276 278 279 281 282 283 283 284 284 284 284 284 285 285 285 285 285 286 286 286 286 285 285 284 283 283 282 281 281 280 279 279 279 278 278 277 277 276 275 275 274
261 261 261 261 260 260 260 260 260 260 260 260 260 260 261 261 261 262 262 263 263 263 264 264 265 265 265 265 265 266 266 266 267 267 268 269 269 270 270 271 272 272 273 274 275 277 277 279 280 281 282 282 282 283 283 284 284 284 284 284 284 285 285 285 285 285 284 284 283 282 281 280 279 279 278 278 277 277 276 276 276 275 274 274 274
261 261 261 260 260 260 260 260 260 260 260 260 260 260 261 261 262 263 263 264 264 265 266 266 267 267 267 267 267 268 268 268 269 269 270 270 271 271 272 272 273 273 274 275 276 277 277 278 279 280 280 281 281 281 282 283 283 284 284 284 284 284 284 285 285 285 284 283 283 282 280 279 278 277 277 276 276 275 275 275 275 274 273 274 274
261 261 260 260 260 260 260 259 259 259 259 260 260 260 260 261 261 262 263 264 265 265 266 267 267 267 268 268 268 268 269 269 269 270 270 270 271 271 272 272 273 273 274 275 276 277 278 278 279 280 280 280 280 281 281 282 283 283 283 283 283 284 284 284 284 284 283 283 282 281 280 279 278 277 276 276 275 274 274 274 273 273 273 273 273
261 260 260 260 260 259 259 259 259 259 259 260 260 260 260 261 261 262 262 263 264 265 265 266 266 267 267 268 268 268 268 268 269 269 269 270 270 271 271 272 272 273 274 274 275 276 277 278 279 280 281 281 280 281 281 281 282 282 283 283 283 283 283 283 284 283 283 282 281 280 279 278 277 276 276 275 274 273 273 272 272 272 272 273 273
260 260 260 259 259 259 259 259 259 259 260 260 260 260 260 261 261 261 262 262 263 263 264 265 265 266 266 266 267 267 268 268 268 269 269 270 270 271 271 272 272 273 273 274 275 275 277 278 279 280 281 281 281 281 281 281 282 282 282 283 283 283 283 283 283 283 282 281 280 279 278 277 277 276 275 274 273 272 272 272 272 272 272 272 272
260 260 259 259 259 259 259 259 259 259 260 260 260 260 260 261 261 261 261 261 262 262 263 263 264 264 265 265 266 266 267 268 268 269 269 270 271 271 272 272 273 273 273 274 275 275 276 277 278 279 280 281 281 281 281 281 282 282 282 282 282 282 282 283 282 282 281 280 279 278 277 277 276 275 274 273 272 272 272 271 271 271 271 271 271
260 259 259 259 259 259 259 259 259 260 260 260 260 260 260 261 261 261 261 262 262 262 262 262 263 264 264 265 266 266 267 268 268 269 269 270 270 271 272 272 273 273 273 274 274 274 275 276 277 279 280 281 281 282 282 281 282 282 282 282 282 282 282 282 281 281 280 279 278 277 276 276 276 275 274 273 272 271 271 271 271 271 271 271 271
259 259 259 259 259 259 259 259 260 260 260 260 260 261 261 261 261 262 262 262 262 262 262 263 263 263 264 265 265 266 267 267 268 268 269 270 271 271 272 272 272 273 273 274 274 274 275 275 277 278 279 280 281 281 281 281 281 282 282 282 282 281 281 281 280 280 279 278 277 276 276 275 275 274 273 272 271 271 271 271 270 271 271 271 271
259 259 259 259 259 259 259 260 260 260 261 261 261 261 261 262 262 262 262 262 262 263 263 263 263 263 264 264 265 265 266 267 267 268 269 269 270 270 271 271 272 272 274 274 274 275 275 275 276 278 279 280 281 281 281 281 281 281 282 281 281 280 280 280 279 279 278 277 277 276 275 274 274 273 272 271 271 271 270 270 270 270 270 270 270
258 259 259 259 259 260 260 260 260 261 261 261 261 261 262 262 262 262 262 263 263 263 263 263 263 264 264 264 264 265 265 266 266 267 268 268 269 269 270 271 272 273 275 275 275 275 275 275 276 277 279 280 281 282 281 281 281 281 281 281 280 279 279 278 278 278 277 276 276 275 274 273 273 272 272 271 271 270 270 270 270 270 270 270 269
258 258 258 259 259 260 260 260 260 261 261 261 261 262 262 262 262 263 263 263 263 263 263 264 264 264 264 264 265 265 265 266 267 267 268 269 269 270 271 272 273 274 276 276 276 275 275 275 276 276 277 280 281 281 281 281 281 281 280 279 278 278 277 277 276 276 276 275 274 273 273 272 272 271 271 271 270 270 270 270 269 270 269 269 269
258 258 258 259 259 259 260 260 261 261 261 262 262 262 262 263 263 263 263 263 264 264 264 264 264 264 265 265 265 266 267 268 269 269 269 270 270 271 272 273 274 274 275 276 277 277 277 276 276 276 277 279 280 280 280 281 280 280 279 278 277 276 276 275 275 274 274 273 273 272 272 271 271 271 271 270 270 270 269 269 269 269 269 269 269
258 258 258 259 259 259 260 260 261 261 261 262 262 263 263 263 263 264 264 264 264 265 265 265 265 265 265 266 267 269 269 270 270 270 270 270 271 271 272 272 272 272 273 275 276 276 277 279 279 279 279 280 280 280 280 280 279 278 277 276 276 275 274 274 274 273 273 272 272 271 271 271 270 270 270 270 270 269 269 269 269 269 269 268 268
258 258 258 259 259 259 260 260 261 261 261 262 262 263 263 263 264 264 265 265 265 265 265 265 266 266 266 267 268 268 268 269 269 269 269 269 269 269 269 269 269 270 271 272 273 275 276 278 279 280 279 279 279 279 280 279 278 277 275 275 274 274 273 272 272 272 272 271 271 270 270 270 270 270 270 269 269 269 269 268 268 268 268 268 268
258 258 258 258 259 259 260 260 260 261 261 262 262 262 262 263 263 264 264 265 265 265 265 265 265 265 265 265 266 265 265 265 266 266 266 266 266 266 266 266 266 267 269 271 273 274 275 276 277 277 277 277 277 278 278 277 276 275 274 273 273 272 272 271 271 271 270 270 270 270 269 269 269 269 269 269 269 268 268 268 268 268 268 268 268
258 258 258 258 259 259 259 260 260 260 261 261 261 261 262 262 262 263 263 264 264 264 264 264 264 264 264 263 263 263 263 263 263 263 264 264 263 263 264 264 265 266 268 270 271 273 274 274 274 275 275 275 275 275 275 275 274 274 273 272 272 271 271 271 270 270 270 269 269 269 269 269 269 269 268 268 268 268 268 268 268 267 267 267 267
258 258 258 258 259 259 259 260 260 260 260 260 260 261 261 261 261 262 262 263 263 263 263 263 262 262 262 262 262 262 261 261 261 262 262 262 262 262 262 263 264 265 267 268 269 271 272 272 272 273 273 273 273 273 273 273 272 272 272 272 271 270 270 270 270 270 269 269 269 268 268 268 268 268 268 268 268 268 267 267 267 267 267 267 267
258 258 258 258 258 259 259 259 259 259 260 260 260 260 260 260 261 261 261 261 262 262 262 262 261 261 261 261 261 260 260 260 260 260 260 260 260 260 261 262 263 264 266 267 268 269 270 270 271 271 271 271 271 271 271 272 271 271 271 271 270 270 270 269 269 269 269 269 269 268 268 268 268 268 267 267 267 267 267 267 267 267 267 267 267
258 258 258 258 258 258 259 259 259 259 259 259 259 259 260 260 260 260 260 261 261 261 261 261 261 261 261 261 260 260 260 259 259 259 259 259 259 260 260 261 262 263 264 265 266 266 267 268 269 269 270 270 270 270 270 271 271 270 270 270 270 270 269 269 269 269 268 268 268 268 268 267 267 267 267 267 267 267 267 267 267 267 267 266 266
257 257 257 258 258 258 258 258 258 258 258 258 259 259 259 259 259 259 260 260 260 260 260 260 260 260 260 260 260 260 260 260 259 259 259 259 260 260 260 260 261 261 263 263 264 264 265 265 266 267 268 268 269 269 269 269 269 269 269 269 269 269 269 269 268 268 268 268 268 267 267 267 267 267 267 267 267 267 266 266 266 266 266 266 266
257 257 257 257 257 257 257 257 257 257 258 258 258 258 258 258 259 259 259 259 260 260 260 260 260 260 260 260 260 260 260 260 260 259 259 260 260 260 260 260 260 261 261 262 262 263 264 264 265 266 266 267 267 267 268 268 268 268 268 268 268 268 268 268 268 267 267 267 267 267 267 267 267 266 266 266 266 266 266 266 266 266 266 266 266
257 257 257 257 257 257 257 257 257 257 257 257 257 258 258 258 258 258 259 259 259 260 260 260 260 260 260 260 260 260 260 260 260 260 259 259 260 260 260 260 260 260 261 261 261 262 263 263 264 264 265 265 266 266 266 266 266 266 266 266 266 267 267 267 267 267 267 267 267 267 267 267 266 266 266 266 266 266 266 266 266 266 266 266 266
258 258 257 257 257 257 257 257 256 256 257 257 257 257 257 257 258 258 258 258 259 259 259 259 259 259 259 259 259 259 259 259 260 260 260 260 260 260 260 260 260 261 261 262 262 263 263 263 263 264 264 264 265 265 265 264 265 265 265 265 265 265 266 266 266 267 267 267 267 267 267 267 266 266 266 266 266 266 266 266 266 266 266 266 266
Wind_Speed
18 18 18 19 20 20 20 21 21 21 21 21 21 21 21 22 21 20 20 19 18 17 17 16 16 15 16 16 16 16 17 17 17 18 20 22 23 24 24 24 25 26 27 28 29 30 31 32 33 34 33 34 37 38 38 38 37 36 36 35 34 31 27 23 13 7 13 22 26 29 33 34 35 37 38 38 38 38 37 35 34 36 38 39 39
17 17 17 18 19 19 19 20 20 20 20 20 20 20 20 20 20 21 21 20 19 19 18 18 17 16 16 16 16 16 16 16 17 17 19 21 22 23 24 24 25 25 26 27 28 29 30 31 32 32 32 34 35 35 36 36 36 36 37 36 37 37 33 28 21 12 11 17 22 26 31 34 36 37 39 40 40 40 38 37 36 38 39 39 38
15 15 15 15 16 16 17 18 18 19 19 20 20 20 20 20 20 20 20 20 19 18 18 18 18 17 17 16 17 17 17 16 16 16 18 20 21 22 23 24 25 25 26 27 27 28 29 30 30 30 31 33 34 34 33 34 34 35 36 36 36 37 36 34 28 20 15 17 23 28 31 35 37 38 40 41 40 40 39 38 38 39 39 39 38
15 14 14 14 14 14 15 16 16 17 17 18 19 19 20 20 21 21 21 21 20 19 18 17 16 16 16 15 15 16 17 17 16 16 17 18 20 21 22 24 25 25 26 26 26 27 28 28 29 29 30 32 33 32 31 32 33 34 34 34 35 35 35 35 34 29 22 19 24 30 34 37 38 38 39 39 39 39 40 39 38 39 39 38 38
17 16 15 15 14 14 14 15 16 16 16 17 17 18 18 19 20 21 21 22 21 21 20 19 16 15 15 14 13 13 13 14 16 16 16 17 19 20 21 22 23 24 25 25 26 26 27 28 28 28 29 31 32 31 31 32 32 33 34 33 33 33 32 33 35 34 27 23 25 29 33 35 35 36 39 40 38 37 37 37 38 38 37 36 36
16 16 15 15 15 14 14 15 16 16 16 17 18 18 19 19 20 21 21 21 22 22 22 21 20 19 18 15 14 13 13 13 14 15 15 15 17 19 20 21 22 23 24 24 25 26 27 28 28 28 29 31 31 29 29 31 31 32 34 32 31 31 31 32 33 32 31 28 25 27 31 33 32 32 38 41 39 37 36 35 35 36 36 36 36
14 14 13 14 14 14 14 16 17 17 17 18 20 21 21 22 23 23 22 22 23 23 22 23 22 22 22 20 18 17 16 15 15 15 15 15 16 18 19 21 22 23 23 23 24 24 26 26 27 28 30 31 32 30 28 29 30 31 33 32 31 30 30 31 31 31 31 28 24 26 30 33 32 31 36 40 38 36 36 32 30 34 37 37 37
13 13 12 13 14 14 16 18 18 18 17 19 22 23 23 25 26 26 25 25 25 24 24 24 24 24 24 24 22 21 20 18 18 17 17 17 17 18 19 21 23 24 24 24 23 23 24 26 26 28 29 31 32 31 31 30 29 30 31 30 29 30 30 30 29 29 30 28 25 25 27 29 30 29 30 34 32 30 34 34 33 35 38 38 38
14 14 13 13 14 14 16 18 19 19 20 23 24 24 25 27 29 30 30 29 28 27 26 26 26 26 27 26 25 25 24 22 21 20 19 19 19 20 21 21 23 24 25 26 25 25 24 25 26 27 28 30 31 31 32 32 31 32 31 28 28 30 30 29 28 28 28 26 25 23 23 25 29 28 29 35 36 33 35 36 33 32 34 34 35
15 16 16 16 16 16 18 19 20 21 23 25 27 28 29 30 31 33 33 32 32 31 30 29 28 29 29 28 28 28 27 26 24 23 22 22 22 22 23 23 24 24 26 27 27 27 26 26 27 27 27 29 30 31 32 33 34 35 33 30 29 31 31 29 29 29 26 25 25 23 19 20 28 32 32 36 38 34 34 36 31 27 27 26 25
17 17 18 19 19 20 22 24 24 25 27 28 29 31 31 32 34 35 35 35 35 33 32 31 32 31 30 30 30 30 30 29 28 26 25 25 24 24 25 26 26 26 26 27 28 28 28 28 28 28 28 29 29 29 30 32 34 35 35 34 34 34 33 31 30 30 27 25 27 27 23 23 29 34 33 33 34 33 34 36 32 28 26 21 15
17 18 19 19 20 22 25 27 28 29 31 32 32 32 33 34 35 36 37 37 37 35 34 34 33 33 31 32 33 32 32 32 31 30 30 29 28 27 27 28 28 27 27 27 28 29 29 29 29 29 29 29 29 29 29 30 31 32 33 35 36 37 38 36 34 32 31 29 28 28 29 30 29 32 34 33 33 33 32 33 34 32 29 25 20
17 18 19 20 22 24 26 27 29 31 32 34 34 34 34 35 36 37 37 37 37 37 38 37 36 36 34 33 33 34 34 35 35 34 34 33 31 30 30 30 30 29 28 28 28 29 29 29 29 30 30 30 29 30 31 31 30 30 30 32 35 38 40 41 40 38 37 35 32 32 36 34 28 30 35 35 33 33 32 32 34 33 29 29 31
18 20 22 25 26 28 29 29 30 31 32 33 33 34 35 35 36 37 36 36 36 36 37 37 38 39 38 36 36 36 38 39 38 36 35 35 35 33 32 31 31 31 30 30 29 29 30 29 29 30 31 30 30 30 30 31 30 29 29 30 33 36 37 40 42 43 42 40 38 39 41 38 32 31 33 35 38 38 37 35 35 34 34 34 35
23 24 26 28 29 29 29 29 30 31 32 32 32 33 34 34 35 36 34 34 34 34 35 36 37 39 40 40 39 40 43 45 42 38 35 34 34 34 33 33 33 33 33 33 32 31 31 31 31 32 32 31 31 31 31 30 29 29 30 31 32 34 35 37 41 42 43 42 43 44 42 39 36 34 32 35 41 43 41 40 39 38 37 33 29
25 25 26 27 28 28 28 29 31 32 32 31 30 31 32 33 34 35 34 34 34 34 35 35 36 38 39 40 39 41 45 48 46 43 39 35 33 33 33 34 34 34 34 35 34 34 34 32 32 33 33 33 33 32 32 31 30 30 31 31 32 33 35 38 40 40 41 42 44 45 44 39 37 36 33 34 39 41 37 34 34 33 29 22 19
24 25 26 27 27 27 28 29 30 30 29 28 29 31 32 34 35 34 33 34 35 36 37 37 37 38 39 39 39 40 44 47 47 45 43 40 37 35 35 34 34 35 36 37 37 36 35 34 33 33 34 35 34 33 32 30 31 32 32 32 32 32 36 39 38 38 39 40 43 45 45 42 39 37 35 34 36 39 36 31 31 32 25 15 12
22 24 25 26 27 28 29 29 29 30 30 31 33 34 35 36 36 35 34 34 37 38 39 39 40 40 40 40 39 39 41 46 48 45 43 41 39 37 36 34 34 35 37 38 38 37 36 36 35 34 35 36 35 35 33 30 31 33 33 33 31 31 36 37 33 31 34 37 41 43 43 42 40 38 37 35 34 39 41 37 34 32 26 19 15
22 23 25 27 29 30 30 31 32 33 34 35 35 35 37 38 37 37 36 36 38 40 40 40 41 42 41 41 42 41 42 47 49 46 42 39 38 37 35 34 34 36 37 38 38 37 36 37 37 35 36 37 36 36 34 32 32 33 34 32 29 31 39 37 29 28 31 34 37 40 41 42 41 38 38 37 35 39 44 43 38 35 32 27 21
24 26 27 28 30 31 32 32 33 33 34 35 36 36 36 37 37 37 37 37 38 39 40 39 40 42 43 43 44 44 45 47 50 49 44 41 39 38 37 35 35 37 38 37 36 35 35 37 38 37 36 36 36 36 35 35 34 35 35 32 30 36 40 34 28 31 32 32 34 36 39 41 41 38 38 38 37 39 43 43 41 40 38 31 27
26 27 28 30 31 32 31 31 32 34 35 35 36 36 35 34 35 36 36 37 37 38 39 39 39 42 43 43 44 46 46 47 50 50 47 44 43 42 40 38 38 37 38 37 36 35 36 36 38 38 37 36 36 34 33 34 35 36 36 36 37 41 38 29 28 32 32 31 32 33 34 36 37 38 39 40 39 40 41 41 42 43 42 36 31
26 28 30 31 31 31 31 31 32 34 34 33 34 37 37 36 36 36 36 36 37 39 40 39 39 40 42 43 44 46 47 47 47 48 47 46 45 44 42 42 41 39 38 37 37 37 38 39 39 39 38 38 37 35 32 33 34 35 37 39 42 44 39 31 28 29 30 31 31 30 30 32 33 35 37 38 39 40 40 40 41 41 41 40 37
29 30 31 32 32 32 32 32 32 31 32 32 34 38 39 37 36 35 33 34 35 36 37 37 36 38 40 41 41 42 44 44 44 44 45 45 45 46 46 45 44 42 40 39 39 40 40 40 41 41 41 40 39 38 34 33 34 35 37 39 41 41 38 33 30 28 29 29 28 27 29 30 30 31 33 34 36 37 37 38 39 38 37 38 37
30 31 32 33 33 33 33 32 32 31 32 32 33 34 34 34 33 32 30 31 31 32 33 33 32 32 34 36 37 38 39 40 40 41 42 44 45 46 47 46 45 43 41 40 41 41 42 42 42 43 43 42 41 40 37 34 34 36 37 38 38 37 33 31 31 30 27 26 26 27 28 29 30 31 32 32 32 33 34 35 36 35 35 35 35
32 32 33 33 33 34 34 34 33 32 31 30 30 30 30 30 30 29 28 28 28 28 30 30 29 28 29 30 33 34 35 36 38 39 39 41 42 43 45 45 45 44 44 43 42 42 44 46 46 46 45 43 42 40 37 35 35 36 36 36 34 33 31 30 29 28 26 26 26 27 28 30 31 31 30 30 30 30 31 31 30 31 32 31 30
32 32 32 33 34 34 34 34 33 31 30 29 28 29 29 29 29 28 27 27 27 27 28 28 26 26 26 27 30 33 33 32 33 34 35 36 38 41 42 42 42 42 43 44 43 42 43 44 45 44 43 42 40 37 36 36 35 35 35 34 33 32 31 30 28 27 27 27 28 28 29 29 29 28 28 29 30 30 31 30 29 29 31 30 27
31 32 32 34 34 33 32 33 32 31 30 29 29 29 29 29 29 28 27 27 26 27 27 28 27 26 27 29 33 35 35 33 32 34 36 37 40 43 43 41 39 38 38 39 40 41 42 43 44 43 41 39 39 37 35 35 34 33 33 33 33 33 33 32 31 29 29 29 28 28 28 26 25 27 28 29 31 31 31 32 31 30 30 30 27
30 32 33 33 32 31 31 32 32 32 31 30 29 29 29 29 29 29 29 29 29 29 28 28 28 28 29 31 32 32 32 33 34 35 37 38 40 40 39 38 37 36 35 36 36 36 37 37 38 38 37 35 34 33 32 32 32 32 32 32 33 33 34 33 31 30 30 30 28 26 25 25 26 28 29 30 30 31 32 33 32 31 31 30 26
31 32 32 31 31 32 31 31 31 31 31 31 30 30 30 30 31 31 32 31 32 32 32 31 31 32 32 31 30 26 26 29 33 35 37 39 39 39 38 37 37 36 36 37 37 36 34 32 30 30 29 28 27 27 28 29 30 31 33 33 32 31 31 31 30 30 29 29 27 26 26 26 27 28 29 29 29 31 33 33 32 31 31 29 24
31 31 31 31 31 31 31 30 31 31 31 31 31 31 31 30 30 32 33 33 33 35 37 37 37 37 36 34 33 32 33 36 38 40 41 41 42 42 42 41 41 40 39 38 37 35 32 30 29 28 27 25 24 24 25 26 27 28 30 32 31 30 29 29 30 30 29 28 28 27 27 27 26 27 28 27 27 29 31 32 32 31 30 27 22
30 31 31 31 31 31 30 30 30 30 30 30 30 30 30 30 30 31 33 34 35 36 38 39 40 40 40 39 39 40 41 42 42 42 41 41 41 41 42 43 42 41 41 39 35 31 29 27 25 26 27 25 24 24 25 25 25 25 26 27 28 29 28 28 29 30 29 28 28 27 28 28 28 28 28 27 27 28 28 29 29 30 29 27 24
31 32 32 31 31 31 31 30 30 29 29 30 29 29 29 29 28 29 30 32 34 36 38 39 39 39 40 40 41 40 40 40 40 40 39 39 39 39 40 41 40 40 41 40 33 28 27 26 24 23 23 23 23 24 24 23 23 23 23 22 24 26 28 29 29 29 28 27 27 27 28 29 29 29 29 29 28 28 27 27 28 28 27 26 24
32 33 32 32 31 31 30 29 28 28 28 29 28 28 28 27 27 28 30 31 33 35 36 37 37 38 38 39 39 39 39 39 38 38 38 37 37 37 37 38 37 37 38 37 30 24 23 24 25 26 25 22 22 22 22 21 21 21 21 21 22 24 26 27 27 27 28 28 28 29 29 29 30 29 28 29 30 29 27 27 27 26 25 23 22
32 32 32 31 30 30 29 28 28 28 28 28 28 28 28 28 28 29 29 29 29 31 34 35 35 35 36 37 37 37 38 38 37 37 36 36 35 36 37 36 35 34 34 33 27 22 22 22 23 26 27 26 23 22 21 20 20 20 20 22 23 23 24 25 26 27 28 28 28 29 30 30 31 30 28 28 28 27 26 26 26 25 24 22 21
31 31 31 30 29 28 29 28 28 28 28 29 29 29 29 30 30 29 28 27 26 28 31 34 36 36 35 35 36 36 36 36 35 34 34 33 34 35 34 30 26 26 27 28 26 24 23 23 24 25 27 28 26 23 22 21 20 19 20 21 22 22 23 25 27 28 28 28 29 29 30 31 32 32 31 29 28 26 25 25 26 25 24 23 22
30 30 29 29 28 28 29 29 29 29 29 30 30 30 30 29 29 28 29 28 28 28 30 33 36 37 37 35 34 33 34 33 32 33 33 32 33 33 28 22 20 21 23 25 27 26 25 25 25 26 27 28 27 24 21 20 19 19 21 22 23 23 24 26 27 27 28 28 28 29 30 30 30 31 30 28 28 28 26 26 26 25 25 25 24
29 28 28 28 28 29 29 30 30 30 29 29 29 29 29 29 28 28 28 28 28 29 30 32 33 33 34 35 34 31 31 32 32 32 31 30 29 28 24 22 22 24 24 24 25 25 24 23 24 24 26 26 26 24 23 21 21 22 24 24 24 25 26 27 28 29 28 28 28 30 30 30 29 30 29 26 25 25 24 25 25 23 23 25 24
27 27 27 27 27 28 28 29 29 29 29 29 28 28 28 28 28 28 27 27 28 28 28 30 29 27 29 33 36 34 32 31 30 29 29 28 26 24 24 24 24 24 24 24 23 23 23 24 25 25 24 24 23 24 24 23 23 24 25 25 25 25 26 27 27 29 29 28 27 28 29 28 27 29 29 27 25 25 24 25 25 22 21 23 22
28 27 27 25 25 26 27 27 28 29 29 29 28 28 27 27 27 27 27 27 27 27 27 27 27 27 28 32 34 34 30 26 25 26 27 29 28 26 25 24 23 23 24 22 21 22 23 25 28 28 26 25 24 24 25 24 24 25 25 24 23 23 23 24 25 26 26 26 26 26 27 27 28 29 28 27 26 26 25 25 26 24 23 23 22
29 29 28 27 26 26 26 26 27 27 27 27 28 28 27 27 26 27 27 26 26 27 27 26 26 29 31 31 31 31 27 23 24 25 26 27 29 28 26 24 22 23 24 22 19 19 22 25 28 29 28 28 26 25 24 24 24 24 25 25 25 24 24 26 27 27 26 26 26 26 27 27 27 27 26 25 26 27 27 26 25 25 24 23 22
29 29 28 27 26 26 26 26 26 26 27 27 27 27 27 27 27 27 27 26 25 26 26 26 27 30 31 30 30 30 26 23 23 25 24 23 24 24 24 24 24 25 25 23 22 20 19 22 26 27 26 26 24 22 22 22 23 24 25 25 25 24 24 25 26 26 26 26 27 27 27 28 28 27 26 25 25 26 26 25 24 24 23 23 23
27 27 27 27 26 25 25 26 26 27 27 27 26 26 26 27 27 27 26 25 25 25 25 26 28 29 29 28 28 28 24 21 20 21 20 20 20 20 22 24 24 24 23 22 22 22 18 13 13 16 17 18 19 19 20 22 23 23 23 23 22 22 23 23 24 25 26 26 26 27 27 27 27 26 26 26 26 27 26 26 25 24 23 22 22
25 24 24 25 25 25 25 25 26 26 26 25 25 26 26 26 26 26 25 25 24 24 23 24 26 27 26 27 27 26 22 20 20 19 18 19 20 21 22 23 24 24 23 20 18 17 14 8 4 4 6 9 12 15 18 20 22 22 22 22 22 23 24 24 24 26 26 26 26 26 26 26 26 25 26 27 28 27 27 26 26 25 23 22 22
23 23 23 24 24 24 24 24 24 25 25 25 25 24 24 24 25 25 24 23 23 23 22 23 24 25 25 26 26 24 22 21 21 20 19 20 20 21 22 23 23 23 22 20 18 15 12 11 11 10 8 7 6 8 11 13 16 19 21 23 23 24 25 25 27 28 28 28 27 27 26 26 26 26 27 28 29 28 27 26 26 25 24 23 22
21 22 23 23 23 23 24 24 24 24 24 25 25 24 24 23 24 24 23 22 22 23 22 22 23 23 23 24 24 23 22 22 21 21 21 21 21 23 23 22 21 22 22 21 20 17 15 13 13 13 12 11 9 8 9 10 12 15 18 20 22 22 23 24 26 28 29 30 30 29 28 28 28 27 28 28 29 28 27 26 26 25 24 23 22
20 21 21 22 22 23 24 24 24 24 23 23 24 24 24 24 23 22 21 21 22 22 22 22 22 22 22 22 23 22 22 23 22 22 22 22 22 24 24 22 20 20 20 19 19 18 16 15 14 14 14 13 13 12 11 11 11 12 14 16 18 19 20 22 24 26 28 29 31 31 30 29 28 28 28 28 27 27 26 25 25 24 23 22 21
20 20 20 20 21 22 23 24 24 24 23 23 23 22 23 23 23 22 22 21 22 21 21 22 22 22 22 22 22 22 23 23 22 22 22 23 23 23 23 23 22 21 20 20 19 19 18 17 16 15 15 15 15 15 14 13 12 12 13 14 15 17 19 21 23 24 26 28 29 31 30 29 28 27 28 27 27 26 25 24 23 22 21 21 20
19 19 20 20 20 21 22 24 24 23 23 23 23 22 22 23 23 23 23 23 23 22 22 23 23 23 23 23 23 23 23 23 22 23 23 24 24 24 24 24 24 23 22 22 22 21 20 19 18 17 17 16 16 16 15 14 13 13 12 13 14 16 18 20 22 24 25 27 28 29 29 29 29 28 28 27 27 26 25 24 23 22 21 20 20
19 19 19 20 20 21 22 22 22 23 23 23 23 23 23 23 23 23 23 23 23 23 23 23 23 23 24 24 24 24 24 24 25 25 25 25 25 25 24 24 25 25 25 25 24 23 22 21 20 19 19 18 18 17 16 15 14 14 13 13 13 15 17 20 23 25 26 27 28 28 28 28 28 28 27 26 26 26 25 24 23 22 20 19 19
18 19 19 20 20 21 22 22 22 22 22 22 22 22 23 23 23 24 24 24 24 24 24 24 24 24 24 25 25 25 25 25 25 26 26 27 26 26 26 27 27 27 28 28 28 27 26 26 24 23 22 21 20 19 18 18 17 17 16 16 16 16 18 21 23 25 27 28 28 28 29 29 28 27 26 26 26 25 24 23 22 21 20 19 18
18 19 19 20 20 21 22 22 22 22 22 22 22 22 22 23 23 24 24 24 23 24 24 25 24 24 24 25 25 25 26 26 26 26 27 28 28 29 29 29 29 30 31 31 31 31 31 31 30 29 28 26 25 23 22 21 20 19 19 19 19 19 21 23 24 25 26 27 28 28 29 29 28 27 26 25 25 24 23 22 21 19 18 18 17
Wind_Direction
33 34 34 34 32 32 31 30 29 29 28 27 26 25 23 21 19 16 15 13 10 5 360 352 343 333 324 317 310 303 298 295 292 288 283 279 275 271 267 263 260 259 258 257 255 254 254 255 255 253 251 250 248 247 246 245 245 244 243 242 241 239 233 223 224 222 209 217 223 221 219 216 212 213 214 214 218 222 224 226 223 221 222 223 223
30 30 31 32 30 29 28 27 26 24 23 21 20 19 18 16 14 12 11 10 9 7 3 359 353 346 336 328 321 314 307 300 295 290 285 281 278 275 271 267 264 262 260 258 257 256 255 255 256 256 254 252 251 249 247 246 245 244 243 242 242 241 239 234 231 226 206 206 212 213 213 211 210 211 213 215 218 219 219 221 221 221 222 223 224
23 24 25 25 23 23 23 22 22 21 19 15 13 11 9 7 6 6 6 6 5 4 2 359 357 354 349 341 334 326 319 311 302 295 288 283 280 277 274 271 269 266 263 261 260 258 257 255 255 256 255 254 252 250 248 247 245 244 243 241 240 240 239 236 233 229 215 203 203 203 203 205 209 212 213 216 217 217 217 218 218 219 220 222 224
12 13 13 11 9 10 10 10 9 10 9 7 5 4 2 360 359 357 357 357 357 358 357 355 352 351 349 346 341 335 329 322 314 304 294 288 284 282 278 274 271 269 266 266 264 262 259 257 257 256 255 254 253 250 249 247 245 244 244 242 241 241 239 236 235 233 225 210 203 203 203 205 209 211 211 211 214 216 216 216 216 218 219 221 223
5 6 4 2 1 358 357 356 354 353 353 353 353 353 352 353 353 352 350 348 348 348 347 347 345 341 337 335 332 331 329 325 321 314 305 297 289 286 283 278 274 272 271 269 268 265 263 261 260 259 257 254 253 250 247 247 246 245 245 243 241 241 240 237 236 235 231 220 207 203 204 205 206 208 207 205 207 211 214 215 215 216 219 220 222
360 1 357 355 354 349 345 344 343 339 336 337 340 339 338 341 344 345 344 341 340 339 338 339 338 335 332 328 322 320 320 318 318 317 314 308 301 294 289 285 280 277 274 273 271 268 266 265 263 261 259 257 255 252 248 246 245 244 244 244 242 241 240 239 237 235 233 230 216 202 202 202 201 203 205 205 203 202 205 210 214 217 219 221 222
350 354 350 345 344 341 337 335 335 332 327 326 329 329 328 329 333 338 337 335 334 333 331 330 331 331 330 328 324 320 317 314 313 314 314 311 308 304 300 295 291 286 281 277 273 270 268 267 266 263 261 259 257 255 252 248 246 244 244 243 241 239 238 238 236 234 233 233 222 206 202 202 201 202 204 204 204 203 199 197 204 214 219 221 222
337 342 340 336 336 333 330 330 331 328 322 319 322 324 323 323 326 330 331 330 329 328 326 323 323 324 324 324 323 320 316 313 313 312 312 310 306 304 303 301 298 294 290 285 279 274 270 267 267 266 264 263 260 257 255 252 250 248 246 243 239 237 236 235 233 232 231 232 226 213 203 201 202 202 199 195 198 203 200 195 199 207 212 217 221
321 326 325 323 324 321 321 324 327 323 318 318 320 321 320 320 323 325 327 327 326 325 322 319 316 315 316 317 317 317 314 312 312 311 308 306 304 300 298 297 296 294 292 291 286 281 276 271 267 266 266 265 264 261 259 256 254 252 249 244 239 236 235 233 231 230 228 229 228 216 202 201 201 196 191 193 197 201 199 199 204 206 206 211 218
307 312 313 315 317 317 318 321 321 318 316 317 319 318 318 318 319 321 321 322 321 322 319 315 311 310 310 311 310 310 309 307 308 309 306 302 299 297 295 293 293 291 289 288 287 284 281 277 273 270 268 267 265 263 262 260 258 255 252 248 242 238 234 232 230 229 227 227 227 216 204 207 207 200 197 200 201 199 196 197 202 202 200 206 217
299 306 311 314 316 317 319 320 319 316 315 315 315 314 314 314 314 314 314 314 315 316 314 310 308 306 304 304 304 304 303 301 302 303 302 300 297 295 294 292 290 289 285 282 282 282 281 279 277 274 271 268 266 265 262 260 258 258 256 253 248 242 237 233 230 229 227 228 229 222 215 217 213 207 206 204 200 199 198 197 197 194 192 198 210
295 304 309 311 313 316 317 316 314 312 311 311 311 311 309 308 307 307 307 308 309 308 307 305 303 301 298 297 298 297 296 295 296 297 298 297 295 292 292 291 289 286 284 281 278 278 277 277 276 275 272 270 268 265 263 261 259 259 259 256 252 248 243 239 235 232 228 229 230 228 226 226 220 210 208 205 200 200 201 199 199 197 196 200 204
299 305 309 310 310 311 311 309 307 305 305 305 305 305 303 301 301 301 301 302 303 302 301 300 298 296 294 293 293 292 291 290 290 291 293 293 291 290 289 289 286 284 283 282 279 277 275 274 273 273 272 271 268 266 264 263 262 260 258 256 254 251 248 244 241 238 234 232 231 231 230 230 227 218 212 206 200 198 199 201 203 202 202 207 210
312 311 310 308 305 303 303 302 299 297 297 297 297 296 295 294 294 295 295 297 298 297 296 296 294 292 290 289 289 288 287 287 287 287 287 287 288 287 286 284 283 282 282 282 280 278 275 272 270 270 270 269 268 266 263 262 261 259 257 254 252 251 249 247 244 242 239 236 235 236 235 232 231 229 220 211 206 203 202 203 204 205 208 214 216
315 311 306 303 301 299 299 298 296 295 294 292 291 290 290 290 289 290 291 292 292 292 292 291 289 287 286 285 285 284 284 285 286 285 282 280 281 282 280 278 277 278 279 280 279 278 276 273 270 269 268 266 265 265 264 262 260 258 255 252 251 250 249 247 245 243 241 239 239 241 241 237 235 234 228 219 215 214 211 211 210 209 210 213 215
313 309 305 303 302 301 300 299 297 295 294 292 292 292 292 292 291 290 290 290 289 288 287 287 285 284 283 282 280 279 281 282 283 283 281 278 276 277 275 273 273 273 274 276 276 276 276 273 270 269 268 266 264 263 262 260 259 256 253 251 250 249 249 249 247 244 242 241 241 243 244 242 238 236 234 228 221 216 213 213 213 208 204 204 204
311 308 306 304 305 304 305 304 301 299 299 299 299 298 298 296 294 292 291 289 288 288 287 287 286 284 282 280 278 277 279 281 281 281 281 279 277 274 272 269 269 269 271 273 272 272 271 270 269 268 267 267 266 264 261 257 253 252 252 251 250 249 249 250 249 245 243 243 243 244 245 244 242 238 236 234 227 215 206 206 208 202 195 195 200
309 308 306 306 307 307 307 306 304 303 303 302 301 300 298 296 293 292 290 288 286 286 286 285 284 282 280 278 277 277 278 280 281 281 280 279 277 274 271 268 267 267 269 270 269 267 266 267 266 264 264 265 266 264 261 255 249 247 248 249 248 248 249 250 246 243 242 242 242 244 244 244 242 240 236 235 231 218 208 208 207 197 194 203 203
309 308 306 306 306 306 306 305 303 302 301 300 299 298 296 294 292 291 288 286 285 284 283 282 280 279 278 276 276 276 277 278 279 280 279 278 276 274 272 270 268 267 267 267 267 265 263 263 264 261 261 263 264 262 259 254 248 245 246 246 244 246 250 248 242 238 237 235 236 239 240 240 239 238 236 234 231 223 217 216 209 199 201 208 199
310 308 306 306 305 305 305 304 302 301 301 300 300 298 296 295 294 292 290 287 285 283 282 280 279 278 277 277 276 276 276 277 278 278 278 277 275 274 273 270 267 266 266 265 264 263 261 260 261 261 260 261 262 260 257 253 249 246 245 242 240 246 251 248 241 238 236 233 233 234 236 237 236 235 234 232 229 226 222 220 214 209 209 209 200
310 308 307 306 306 305 305 304 303 302 302 302 301 299 297 296 295 294 292 289 287 284 282 280 278 277 277 276 276 275 275 276 277 278 278 277 275 273 271 267 264 263 263 263 261 261 260 258 259 259 259 261 261 258 254 251 249 246 244 242 243 248 251 247 241 240 236 233 233 232 232 234 233 231 231 229 228 226 223 221 219 217 216 213 207
310 309 309 309 308 308 306 305 305 304 303 304 302 299 298 297 295 293 291 289 287 284 282 281 279 278 277 276 275 274 275 275 276 277 277 276 275 273 270 266 264 261 261 261 259 258 258 258 258 259 259 259 261 258 251 247 246 245 245 246 249 249 248 244 240 237 232 230 231 229 229 230 229 228 228 226 225 225 223 221 220 219 219 217 214
313 313 313 312 310 310 308 307 307 306 304 303 301 299 299 298 297 294 292 290 288 285 284 283 281 279 278 277 275 275 275 275 275 275 276 275 275 274 272 269 266 262 258 256 256 256 257 257 257 258 258 258 259 258 253 247 246 246 245 247 249 248 245 241 238 233 229 228 227 226 226 226 225 226 226 225 224 222 221 220 219 218 218 218 217
316 315 314 313 311 311 310 309 308 306 304 303 300 298 299 299 298 297 295 293 291 288 287 286 284 281 280 280 279 279 279 279 278 277 278 278 278 277 276 274 270 266 261 257 255 255 256 256 256 257 257 257 257 257 255 250 247 246 245 246 246 245 241 237 234 231 228 225 223 224 225 223 222 224 224 223 223 221 219 218 216 215 216 215 215
317 315 315 314 313 313 311 310 309 307 305 304 300 297 298 298 298 298 297 295 292 290 290 289 286 284 283 282 284 284 284 283 282 282 282 283 283 282 281 278 275 272 268 263 259 255 254 254 255 256 256 256 256 256 255 252 248 246 246 246 244 240 236 234 230 227 224 222 223 224 225 223 222 223 223 221 218 215 212 209 206 206 207 207 207
316 315 315 314 314 314 312 310 309 308 307 304 300 298 297 297 296 296 296 294 291 290 291 291 290 288 287 288 289 290 290 290 290 290 292 291 290 290 288 284 280 276 272 269 265 262 258 256 255 254 254 254 253 251 251 251 249 247 245 244 240 236 234 232 227 222 221 222 223 224 224 224 221 219 218 214 209 204 200 195 190 191 194 193 188
315 314 314 314 314 313 311 309 309 309 308 305 302 298 296 295 293 293 292 290 289 288 287 288 288 288 287 287 288 288 288 289 290 291 292 292 291 290 289 288 286 283 279 275 270 266 262 258 256 255 254 254 251 249 249 248 247 244 241 239 237 234 232 230 227 223 222 223 224 223 223 219 213 208 205 201 198 196 193 188 183 182 184 183 175
315 313 313 313 312 312 311 309 308 307 305 303 300 298 296 294 291 288 287 286 284 283 281 280 279 278 278 280 282 281 280 280 282 283 282 282 282 282 282 284 285 285 284 282 278 274 268 261 257 254 253 252 249 246 244 243 241 239 236 234 234 233 232 231 229 226 225 224 223 220 215 207 201 197 193 190 190 189 187 185 183 180 178 175 170
314 312 311 312 311 311 309 307 305 304 302 301 299 296 295 293 289 287 286 284 282 281 280 279 278 277 276 276 276 276 276 277 280 282 281 281 280 279 277 276 277 278 279 280 281 281 276 268 259 252 249 246 243 241 239 237 236 234 232 231 231 229 228 227 225 224 223 221 217 213 205 197 193 190 186 184 186 185 184 184 182 179 177 178 178
313 311 311 310 308 307 306 304 303 303 301 300 299 297 295 292 290 289 289 289 287 286 286 286 286 286 285 283 281 281 283 285 288 289 288 287 286 285 282 280 278 276 276 276 276 276 273 265 255 249 245 243 240 237 235 232 231 229 228 228 227 225 224 223 222 222 220 215 212 208 198 190 186 184 182 181 181 181 183 184 181 178 177 180 181
311 310 309 307 305 305 304 303 303 302 300 299 299 298 296 294 292 290 290 291 292 292 291 290 291 291 291 291 290 290 290 292 294 293 292 291 290 288 286 285 283 280 278 276 272 268 267 264 257 247 241 239 238 236 233 231 229 227 226 225 224 223 221 220 220 219 216 210 207 202 194 187 184 182 181 179 177 176 179 181 180 180 180 182 181
308 306 305 304 304 304 303 302 301 300 299 299 299 298 297 297 296 294 293 294 294 294 294 294 294 294 294 294 295 295 294 295 295 294 294 293 291 290 288 286 285 283 281 280 275 266 262 263 263 257 245 234 232 234 234 232 232 229 226 224 223 221 220 219 218 215 210 205 201 195 190 187 184 181 180 178 175 174 176 177 179 180 181 183 184
305 302 302 303 304 303 302 301 300 299 299 300 299 298 298 298 298 299 299 298 296 295 295 295 295 296 296 296 296 297 296 297 297 296 296 295 292 290 288 286 285 282 279 278 276 271 265 261 259 259 256 245 235 231 231 233 234 232 228 225 223 221 221 219 216 211 205 201 196 191 188 186 182 179 179 178 176 176 176 177 179 180 180 182 183
303 300 301 302 301 300 300 300 299 299 299 298 297 297 296 296 297 298 300 301 301 299 299 298 298 298 297 297 298 298 297 298 299 298 297 296 294 291 290 289 287 284 279 274 270 269 270 267 259 256 255 252 245 235 228 228 231 231 230 228 226 224 220 215 210 205 200 196 193 189 186 184 181 179 178 177 177 177 177 177 178 178 179 179 177
303 301 301 301 300 299 299 299 299 298 297 297 296 295 294 294 295 295 296 298 300 300 300 300 301 301 300 298 299 300 300 301 301 301 300 298 296 295 296 296 293 287 279 272 267 265 265 267 265 261 255 250 244 234 225 221 222 226 228 227 225 220 213 206 203 200 195 191 189 187 185 183 182 181 179 177 175 176 177 178 180 180 179 177 174
304 302 302 303 303 301 300 300 299 297 296 296 295 294 294 294 293 293 294 295 295 296 297 299 301 303 303 301 300 302 303 303 304 303 301 300 299 299 299 294 288 283 275 265 261 260 259 260 264 267 263 254 243 232 222 216 215 220 225 227 222 213 205 200 197 194 191 188 186 185 184 184 184 182 179 177 176 177 177 178 179 180 180 178 175
304 303 304 305 306 305 303 302 301 299 298 298 297 297 296 295 294 294 294 294 294 295 296 299 301 304 305 305 305 305 304 304 305 302 300 299 299 297 293 285 281 281 276 263 254 253 256 255 257 263 268 262 247 231 221 215 212 216 222 224 217 207 200 197 195 190 187 185 184 183 183 183 183 180 176 173 173 174 175 176 177 177 179 178 174
305 304 303 305 306 307 305 304 303 303 303 301 301 299 298 297 297 296 295 295 296 296 297 299 301 302 302 305 309 309 307 306 305 303 302 301 299 295 290 285 283 284 282 270 253 247 252 256 256 259 269 270 251 226 213 209 208 211 215 215 209 202 197 194 190 187 185 183 182 181 181 179 178 176 174 171 171 171 173 174 173 172 172 173 171
309 308 307 308 309 308 306 304 304 305 304 304 304 303 301 299 299 298 297 297 297 297 297 299 300 300 301 304 309 310 309 306 305 305 306 306 305 302 297 293 292 296 296 283 258 245 248 253 253 254 262 265 248 221 206 202 204 206 206 202 196 190 187 183 181 180 180 178 177 176 175 174 174 175 174 172 170 170 169 171 172 171 169 170 172
312 312 314 315 315 312 309 306 305 305 306 306 306 306 305 303 302 301 300 299 298 298 299 299 299 301 304 305 306 307 305 303 304 304 303 303 304 305 306 307 309 312 313 303 283 263 252 246 246 248 252 252 241 219 203 200 200 199 196 192 187 182 180 179 177 176 176 174 172 171 171 171 170 171 171 170 170 169 168 168 170 171 169 169 168
313 314 316 319 318 314 311 309 308 310 310 310 310 310 309 309 308 307 305 303 302 302 303 302 302 304 307 308 309 311 310 306 305 305 305 307 309 312 316 319 319 318 317 317 315 309 287 261 248 245 242 236 224 209 199 196 194 192 190 187 182 178 175 174 173 173 172 170 169 168 168 169 168 167 167 166 166 165 165 164 164 165 165 164 163
315 315 317 320 319 315 312 311 312 315 315 314 315 315 315 314 314 313 312 311 312 312 311 310 311 314 316 319 324 328 326 321 317 317 319 322 323 324 325 325 326 327 326 326 331 336 329 296 252 232 221 210 200 195 194 193 190 187 183 178 172 168 166 166 168 169 167 166 167 167 167 167 167 165 163 161 160 160 160 159 158 158 159 160 161
318 319 320 319 317 314 312 313 316 318 318 318 318 319 319 319 319 319 318 318 319 321 320 320 321 323 326 330 335 338 336 333 330 329 329 329 330 332 333 332 335 341 347 349 353 0 7 20 62 126 155 170 181 189 192 189 185 180 174 168 165 162 161 162 163 164 163 162 163 163 163 162 162 160 158 157 157 156 155 155 155 156 156 157 159
323 326 326 322 319 318 318 320 321 321 321 321 321 323 324 325 324 324 323 323 324 325 325 326 328 329 331 335 339 340 339 336 334 332 332 332 333 337 342 343 345 353 2 9 15 24 38 53 64 74 87 106 140 165 171 173 174 173 168 165 163 162 162 164 165 166 165 162 159 158 158 157 157 157 156 156 155 153 153 153 153 153 153 154 155
331 333 330 327 325 325 326 327 327 326 326 326 326 327 329 330 330 330 330 329 330 330 330 331 333 333 333 336 340 342 341 339 338 338 338 338 340 345 352 355 359 5 14 20 24 33 46 57 64 72 78 82 93 113 128 141 154 161 163 164 163 162 164 167 167 166 165 162 158 156 155 155 156 156 155 155 155 153 152 153 152 151 151 153 155
339 338 334 332 332 332 332 332 332 332 332 332 331 331 333 335 336 335 335 335 335 334 334 335 336 337 337 339 342 344 345 345 345 344 344 346 349 355 2 8 14 18 24 30 35 41 48 56 66 74 80 85 94 103 113 125 138 149 157 160 161 162 165 167 166 165 164 162 158 156 155 154 155 155 154 154 153 151 149 150 150 150 152 154 154
343 341 339 338 337 336 335 335 336 336 336 337 337 336 338 340 340 340 339 340 341 341 341 342 343 344 346 348 350 353 354 354 354 354 355 358 2 6 11 19 25 27 32 38 43 48 54 60 68 77 84 90 96 102 108 117 129 140 150 159 164 165 166 167 165 164 162 160 158 156 154 151 150 151 151 149 148 146 146 147 149 150 152 153 154
347 346 346 346 344 341 339 339 339 339 339 340 340 341 343 344 345 345 345 346 348 349 351 352 354 355 355 356 359 2 4 5 5 6 8 11 14 16 20 25 29 34 39 44 46 50 55 61 67 75 83 88 93 98 103 110 118 128 139 150 158 162 164 164 162 159 158 156 155 153 151 149 147 147 147 147 146 146 145 145 147 149 151 154 158
352 353 353 352 349 346 344 343 342 341 341 342 342 344 346 347 348 350 350 351 353 355 356 358 1 2 2 3 5 8 11 13 14 15 16 18 20 23 27 30 35 42 47 49 50 53 57 62 66 72 77 82 86 90 94 98 105 112 119 129 142 152 157 158 156 154 152 150 149 147 146 144 143 144 145 145 146 146 146 146 148 150 151 153 158
358 1 0 357 354 352 350 349 348 346 347 347 346 346 348 349 351 353 355 355 357 359 0 2 3 5 7 9 10 12 16 18 18 20 23 26 29 33 36 38 42 48 52 55 57 59 62 65 67 69 73 77 81 85 88 91 95 101 109 117 128 138 144 145 147 149 149 148 147 147 146 144 142 142 144 145 146 146 147 148 150 151 152 152 156
3 5 4 2 1 359 356 355 353 351 352 352 351 350 350 351 353 356 358 359 1 3 3 4 6 8 11 14 17 18 22 25 27 28 30 33 37 42 43 44 46 51 55 58 61 63 64 65 65 67 69 71 74 79 84 89 93 100 107 114 120 127 133 137 141 145 148 149 149 148 147 146 144 143 144 145 146 147 148 149 151 153 154 155 157